This is the latest recevied weather packets stored in our database for station/object K3HM. If no packets are shown the sender has not sent any weather packets the latest 10 day(s).
| Time | Temp. | Humidity | Pressure | Rain* | Wind** | Luminosity | Snow |
|---|---|---|---|---|---|---|---|
| 1777768253 | 2.78° C | 82% | 1014.9 hPa | 0 mm | - | 0 W/m² | - |
| 1777767950 | 2.78° C | 81% | 1014.9 hPa | 0 mm | - | 0 W/m² | - |
| 1777767647 | 2.78° C | 81% | 1014.7 hPa | 0 mm | - | 1 W/m² | - |
| 1777767343 | 2.78° C | 80% | 1014.7 hPa | 0 mm | - | 2 W/m² | - |
| 1777767041 | 2.78° C | 79% | 1014.8 hPa | 0 mm | - | 2 W/m² | - |
| 1777766738 | 2.78° C | 78% | 1014.8 hPa | 0 mm | - | 2 W/m² | - |
| 1777766435 | 2.78° C | 77% | 1015 hPa | 0 mm | - | 3 W/m² | - |
| 1777766131 | 3.33° C | 76% | 1014.8 hPa | 0 mm | - | 5 W/m² | - |
| 1777765830 | 3.33° C | 75% | 1014.9 hPa | 0 mm | - | 7 W/m² | - |
| 1777765525 | 3.33° C | 74% | 1014.6 hPa | 0 mm | - | 10 W/m² | - |
| 1777765223 | 3.33° C | 75% | 1014.6 hPa | 0 mm | - | 12 W/m² | - |
| 1777764918 | 3.33° C | 76% | 1014.6 hPa | 0 mm | - | 17 W/m² | - |
| 1777764616 | 3.33° C | 76% | 1014.5 hPa | 0 mm | - | 24 W/m² | - |
| 1777764311 | 3.89° C | 78% | 1014.4 hPa | 0 mm | - | 30 W/m² | - |
| 1777764009 | 3.89° C | 77% | 1014.4 hPa | 0 mm | - | 36 W/m² | - |
| 1777763706 | 3.89° C | 77% | 1014.3 hPa | 0 mm | - | 47 W/m² | - |
| 1777763404 | 3.89° C | 78% | 1014.4 hPa | 0 mm | - | 58 W/m² | - |
| 1777763102 | 3.89° C | 77% | 1014.4 hPa | 0 mm | - | 60 W/m² | - |
| 1777762800 | 4.44° C | 76% | 1014.4 hPa | 0 mm | - | 50 W/m² | - |
| 1777762495 | 4.44° C | 75% | 1014.4 hPa | 0 mm | - | 61 W/m² | - |
| 1777762192 | 5° C | 74% | 1014.3 hPa | 0 mm | - | 81 W/m² | - |
| 1777761888 | 4.44° C | 74% | 1014 hPa | 0 mm | - | 71 W/m² | - |
| 1777761585 | 4.44° C | 74% | 1014.2 hPa | 0 mm | - | 69 W/m² | - |
| 1777761283 | 5° C | 74% | 1014.2 hPa | 0 mm | - | 76 W/m² | - |
| 1777760981 | 5° C | 73% | 1014.3 hPa | 0 mm | - | 111 W/m² | - |
* Rain latest hour (hover to see other rain measurements)
** Current wind speed in m/s (hover to see current wind gust speed)